www.pogodaiklimat.ru

Погода и климат >> Архив погоды >> Австралия >> Telfer Aero


ПОГОДА в Telfer Aero

  • Прогноз погоды в Telfer Aero
  • Монитор погоды в Telfer Aero
  • Климат города

АРХИВ ПОГОДЫ в Telfer Aero

Время (UTC), дата Ветер
(напр.,м/с)
 
Видим.   Явления Облачность Т
(С)
Тd
(С)
f
(%)
Тe
(С)
Тes
(С)
Комфортность P
(гПа)
Po
(гПа)
Тmin
(С)
Tmax
(С)
R
(мм)
R24
(мм)
S
(см)
22 10.11 ЮВ 7 н/о н/о +25.6 +14.4 50 +28 +28 жарко 1006.8 974.5
00 11.11 ЮВ 6 н/о н/о +29.7 +13.0 36 +31 +31 жарко 1007.1 974.8
01 11.11 В 3 н/о н/о +32.3 +12.0 29 +33 +33 жарко 1006.9 974.6 +25.0
03 11.11 З 3 н/о н/о +36.6 +13.4 25 +37 +37 очень
жарко
1005.5 973.3
04 11.11 З 5 н/о н/о +37.8 +13.1 23 +38 +38 очень
жарко
1004.7 972.5
06 11.11 СЗ 5 н/о н/о +39.4 +12.3 20 +39 +39 очень
жарко
1003.5 971.3
07 11.11 З 7 н/о 3/0
[]
+39.6 +11.7 19 +39 +42 очень
жарко
1002.7 970.6
09 11.11 СЗ 8 н/о н/о +38.4 +12.9 22 +38 +38 очень
жарко
1002.6 970.5
10 11.11 З 7 н/о 9/0
[]
+37.4 +13.4 24 +38 +38 душно 1003.0 970.9
12 11.11 З 6 н/о н/о +35.4 +12.4 25 +35 +35 очень
жарко
1004.6 972.4
13 11.11 СЗ 7 н/о 10/0
[]
+34.7 +12.4 26 +35 +35 очень
жарко
1005.2 973.0 +41.0
15 11.11 СЗ 8 н/о н/о +32.8 +11.3 27 +33 +33 жарко 1005.5 973.3
16 11.11 СЗ 7 н/о 10/0
[]
+31.6 +11.4 29 +32 +32 жарко 1005.1 972.9
18 11.11 СЗ 6 н/о н/о +29.2 +15.0 42 +32 +32 душно 1004.8 972.6
19 11.11 З 7 н/о 8/0
[]
+28.4 +15.3 45 +31 +31 душно 1005.3 973.1
21 11.11 З 3 н/о н/о +26.4 +16.1 53 +30 +30 душно 1006.8 974.5
22 11.11 ЮЗ 5 н/о н/о +27.3 +14.7 46 +30 +30 душно 1007.2 974.9
00 12.11 Ю 4 н/о н/о +30.1 +14.6 39 +32 +32 жарко 1007.8 975.5
01 12.11 Ю 4 н/о н/о +32.3 +14.0 33 +34 +34 душно 1007.7 975.4 +26.4
03 12.11 ЮЗ 3 н/о н/о +34.7 +13.0 27 +35 +35 очень
жарко
1006.7 974.4
04 12.11 З 5 н/о н/о +37.0 +12.4 23 +37 +37 очень
жарко
1005.7 973.5
06 12.11 З 8 н/о н/о +39.1 +12.0 20 +39 +39 очень
жарко
1004.2 972.0
07 12.11 СЗ 7 н/о 8/0
[]
+38.8 +12.5 21 +38 +40 очень
жарко
1003.8 971.6
09 12.11 З 4 н/о н/о +38.0 +11.9 21 +37 +37 очень
жарко
1003.7 971.5
10 12.11 З 6 н/о 8/0
[]
+36.8 +12.3 23 +37 +37 очень
жарко
1004.2 972.0
12 12.11 ЮЗ 4 н/о н/о +35.5 +11.2 23 +35 +35 очень
жарко
1005.7 973.5
13 12.11 Ю 3 н/о 10/0
[]
+34.6 +10.4 23 +34 +34 очень
жарко
1006.4 974.2 +40.0
15 12.11 В 2 н/о н/о +30.8 +7.9 24 +30 +30 жарко 1007.8 975.5
16 12.11 ЮВ 4 н/о н/о +28.8 +7.9 27 +28 +28 жарко 1007.8 975.5
18 12.11 ЮВ 5 н/о н/о +26.8 +8.3 31 +27 +27 жарко 1007.6 975.3
19 12.11 ЮВ 4 н/о н/о +25.5 +8.5 34 +26 +26 жарко 1007.8 975.5
21 12.11 ЮВ 4 н/о н/о +24.0 +8.4 37 +25 +25 комфорт 1008.7 976.4
22 12.11 ЮВ 5 н/о н/о +25.9 +8.8 34 +26 +26 жарко 1009.3 977.0
00 13.11 В 9 н/о н/о +30.4 +10.9 30 +31 +31 жарко 1010.2 977.8
01 13.11 В 8 н/о н/о +32.6 +10.6 26 +32 +32 жарко 1010.2 977.8 +24.0
03 13.11 В 6 н/о н/о +35.3 +10.4 22 +34 +34 очень
жарко
1008.9 976.6
04 13.11 В 6 н/о н/о +36.3 +9.8 20 +35 +35 очень
жарко
1008.0 975.7
06 13.11 В 3 н/о н/о +38.4 +9.9 18 +37 +37 очень
жарко
1006.2 974.0
07 13.11 ЮЗ 4 н/о н/о +38.9 +10.3 18 +38 +38 очень
жарко
1005.4 973.2
09 13.11 ЮВ 2 н/о н/о +38.5 +10.8 19 +37 +37 очень
жарко
1005.4 973.2
10 13.11 Ю 3 н/о 4/0
[]
+37.1 +10.4 20 +36 +36 очень
жарко
1005.9 973.7
12 13.11 ЮВ 3 н/о н/о +33.3 +10.6 25 +33 +33 жарко 1007.6 975.3
13 13.11 ЮВ 5 н/о 3/0
[]
+33.6 +9.6 23 +33 +33 жарко 1007.8 975.5 +39.5
15 13.11 ЮВ 6 н/о н/о +30.8 +9.1 26 +30 +30 жарко 1007.6 975.3
16 13.11 ЮВ 6 н/о 5/0
[]
+30.5 +8.3 25 +30 +30 жарко 1007.3 975.0
18 13.11 ЮВ 4 н/о н/о +27.4 +7.3 28 +27 +27 жарко 1007.8 975.5
19 13.11 ЮВ 5 н/о 1/0
[]
+27.6 +6.4 26 +27 +27 жарко 1008.0 975.7
21 13.11 ЮВ 5 н/о н/о +25.4 +6.1 29 +25 +25 комфорт 1009.3 977.0
22 13.11 ЮВ 6 н/о н/о +27.3 +6.7 27 +27 +27 жарко 1010.3 977.9
00 14.11 В 8 н/о н/о +32.8 +8.3 22 +31 +31 жарко 1011.2 978.8
01 14.11 В 8 н/о н/о +34.4 +8.2 20 +33 +33 жарко 1011.3 978.9 +25.4
03 14.11 В 5 н/о н/о +38.9 +7.6 15 +37 +37 очень
жарко
1010.2 977.8
04 14.11 ЮВ 5 н/о н/о +38.7 +8.4 16 +37 +37 очень
жарко
1009.3 977.0
06 14.11 ЮЗ 4 н/о н/о +40.6 +6.8 13 +38 +38 очень
жарко
1007.8 975.5
07 14.11 Ю 4 н/о н/о +40.0 +7.4 14 +38 +38 очень
жарко
1007.4 975.1
09 14.11 Ю 3 н/о н/о +39.1 +6.7 14 +37 +37 очень
жарко
1007.3 975.0
10 14.11 Ю 4 н/о 1/0
[]
+37.9 +6.8 15 +35 +36 очень
жарко
1007.7 975.4
12 14.11 ЮВ 3 н/о н/о +33.3 +7.3 20 +32 +32 жарко 1008.7 976.4
13 14.11 ЮВ 3 н/о 1/0
[]
+31.2 +7.6 23 +30 +30 жарко 1009.3 977.0 +41.6
15 14.11 ЮВ 3 н/о н/о +29.2 +7.2 25 +28 +28 жарко 1009.3 977.0
16 14.11 ЮВ 6 н/о н/о +30.8 +7.3 23 +30 +30 жарко 1009.0 976.7
18 14.11 ЮВ 4 н/о н/о +27.4 +6.8 27 +27 +27 жарко 1008.8 976.5
19 14.11 Ю 5 н/о 6/0
[]
+28.9 +6.9 25 +28 +28 жарко 1009.8 977.4
21 14.11 ЮВ 5 н/о н/о +27.6 +5.8 25 +27 +27 жарко 1011.3 978.9
22 14.11 ЮВ 4 н/о 6/0
[]
+27.9 +4.9 23 +27 +27 жарко 1012.1 979.7
00 15.11 ЮВ 7 н/о н/о +33.7 +4.4 16 +31 +31 жарко 1013.3 980.8
01 15.11 В 6 н/о 6/0
[]
+36.0 +3.3 13 +33 +37 жарко 1013.1 980.6 +26.9
03 15.11 В 6 н/о н/о +39.1 +4.5 12 +36 +36 очень
жарко
1011.9 979.5
04 15.11 ЮВ 4 н/о н/о +39.3 +5.8 13 +37 +37 очень
жарко
1011.0 978.6
06 15.11 В 4 н/о н/о +40.9 +5.9 12 +38 +38 очень
жарко
1008.8 976.5
07 15.11 Ю 5 н/о н/о +41.5 +5.1 11 +39 +39 очень
жарко
1008.4 976.1
09 15.11 ЮВ 6 н/о н/о +40.2 +5.4 12 +37 +37 очень
жарко
1007.9 975.6
10 15.11 ЮВ 5 н/о н/о +38.7 +5.4 13 +36 +36 очень
жарко
1008.5 976.2
12 15.11 ЮВ 4 н/о н/о +33.5 +5.9 18 +31 +31 жарко 1010.3 977.9
13 15.11 ЮВ 4 н/о н/о +33.2 +5.7 18 +31 +31 жарко 1010.8 978.4 +42.6
15 15.11 ЮВ 5 н/о н/о +32.2 +5.7 19 +30 +30 жарко 1010.5 978.1
16 15.11 ЮВ 5 н/о н/о +30.6 +5.8 21 +29 +29 жарко 1009.8 977.4
18 15.11 ЮВ 5 н/о н/о +28.8 +6.2 24 +28 +28 жарко 1008.8 976.5
19 15.11 ЮВ 4 н/о 10/0
[]
+28.3 +5.8 24 +27 +27 жарко 1009.0 976.7
21 15.11 ЮВ 5 н/о н/о +28.2 +5.1 23 +27 +27 жарко 1010.5 978.1
22 15.11 ЮВ 6 н/о 9/0
[]
+28.9 +5.1 22 +27 +28 жарко 1011.2 978.8
00 16.11 В 7 н/о н/о +33.4 +8.8 22 +32 +32 жарко 1012.0 979.6
01 16.11 ЮВ 8 н/о 1/0
[]
+35.6 +11.3 23 +35 +37 очень
жарко
1011.9 979.5 +27.8
03 16.11 В 7 н/о н/о +38.7 +9.3 17 +37 +37 очень
жарко
1010.5 978.1
04 16.11 ЮВ 7 н/о н/о +39.3 +7.9 15 +37 +37 очень
жарко
1009.5 977.2
06 16.11 Ю 6 н/о н/о +41.2 +7.3 13 +39 +39 очень
жарко
1007.8 975.5
07 16.11 Ю 5 н/о 10/0
[]
+39.9 +7.4 14 +38 +40 очень
жарко
1007.3 975.0
09 16.11 ЮЗ 4 н/о н/о +38.6 +6.3 14 +36 +36 очень
жарко
1007.1 974.8
10 16.11 Ю 6 н/о 10/0
[]
+37.3 +8.2 17 +35 +35 очень
жарко
1007.7 975.4
12 16.11 Ю 9 н/о н/о +35.7 +8.5 19 +34 +34 очень
жарко
1009.2 976.9
13 16.11 Ю 7 н/о 9/0
[]
+35.0 +8.7 20 +33 +33 жарко 1009.4 977.1 +42.3
15 16.11 Ю 5 н/о н/о +33.6 +7.6 20 +32 +32 жарко 1009.2 976.9
16 16.11 Ю 6 н/о 10/0
[]
+33.6 +8.3 21 +32 +32 жарко 1008.9 976.6
18 16.11 Ю 7 н/о н/о +32.8 +8.3 22 +31 +31 жарко 1008.4 976.1
19 16.11 Ю 4 н/о 10/0
[]
+32.1 +7.7 22 +31 +31 жарко 1009.1 976.8
21 16.11 ЮВ 7 н/о н/о +31.3 +12.6 32 +32 +32 жарко 1010.8 978.4
22 16.11 В 5 н/о 4/0
[]
+28.4 +15.3 45 +31 +31 душно 1011.5 979.1
00 17.11 ЮВ 5 н/о н/о +28.8 +16.4 47 +32 +32 душно 1012.1 979.7
01 17.11 ЮВ 5 н/о 10/0
[]
+29.7 +15.8 43 +33 +36 душно 1011.9 979.5 +28.4
03 17.11 В 6 н/о н/о +35.6 +14.3 28 +37 +37 душно 1009.9 977.5
04 17.11 ЮВ 5 н/о н/о +36.3 +12.5 24 +36 +36 очень
жарко
1008.6 976.3
06 17.11 ЮВ 6 н/о н/о +38.4 +9.9 18 +37 +37 очень
жарко
1006.6 974.3
07 17.11 Ю 3 н/о н/о +38.3 +9.8 18 +37 +37 очень
жарко
1006.0 973.8
09 17.11 ЮВ 3 н/о н/о +38.0 +9.6 18 +36 +36 очень
жарко
1005.6 973.4
10 17.11 ЮВ 4 н/о 3/0
[]
+36.7 +10.1 20 +35 +36 очень
жарко
1005.9 973.7
12 17.11 В 3 н/о н/о +32.2 +10.8 27 +32 +32 жарко 1007.4 975.1
13 17.11 В 3 н/о н/о +31.1 +10.4 28 +31 +31 жарко 1007.7 975.4 +39.7
15 17.11 В 3 н/о н/о +29.9 +10.5 30 +30 +30 жарко 1007.3 975.0
16 17.11 В 3 н/о н/о +29.7 +10.8 31 +30 +30 жарко 1006.9 974.6
18 17.11 В 2 н/о н/о +28.5 +10.7 33 +29 +29 жарко 1005.6 973.4
19 17.11 В 2 н/о н/о +28.2 +10.4 33 +29 +29 жарко 1005.7 973.5

 

Местоположение метеостанции Telfer Aero (Западная Австралия, Австралия): широта -21.71 долгота 122.21 высота над уровнем моря 292 м.

В архиве по умолчанию представлена погода в Telfer Aero за последнюю неделю. Архивные данные за месяц целиком и за предыдущие месяцы, начиная с января 2011 года, Вы можете получить, выбрав интересующий диапазон дат из раскрывающегося списка и нажав кнопку "Ввод!".


*Определитесь, кто Вы:
робот инопланетянин человек

Внимание! Время в таблицах - всемирное. Для получения местного времени необходимо прибавить поправку, которая в Telfer Aero равна 8 ч.

Смотрите также архив погоды в соседних городах и на ближайших метеорологических станциях:

Погода в Marble Bar (Западная Австралия, Австралия) (261 км)
Погода в Mandora (Западная Австралия, Австралия) (262 км)
Погода в Newman Aero (Западная Австралия, Австралия) (311 км)
Погода в Port Hedland Apardoo (Западная Австралия, Австралия) (401 км)
Погода в Broome Airport (Западная Австралия, Австралия) (418 км)
Погода в West Roebuck (Западная Австралия, Австралия) (424 км)
Погода в Paraburdoo Aero (Западная Австралия, Австралия) (486 км)
Погода в Curtin Aero (Западная Австралия, Австралия) (489 км)
Погода в Derby Aero (Северная территория, Австралия) (507 км)
Погода в Fitzroy Crossing Aero (Западная Австралия, Австралия) (526 км)

Пояснения к столбцам:

Ветер - указаны скорость ветра в м/с - средняя за 10 мин, порывы в срок и между сроками (в фигурных скобках) и направление, откуда дует ветер: С - северный, СВ - северо-восточный, В - восточный, ЮВ - юго-восточный, Ю - южный, ЮЗ - юго-западный, З - западный, СЗ - северо-западный.
Видимость - горизонтальная дальность видимости в метрах или километрах. При видимости от 1 до 10 км при отсутствии осадков обычно наблюдается дымка, при ухудшении видимости до 1 км и менее - туман. В сухую погоду видимость может ухудшаться дымом, пылью или мглою.
Явления - указаны атмосферные явления, наблюдавшиеся в срок или в последний час перед сроком; фигурными скобками обозначены явления, наблюдавшиеся между сроками (за 1-3 часа до срока); квадратными скобками обозначены град или гололедные отложения с указанием их диаметра в мм.
Облачность - указаны через наклонную черту общая и нижняя облачность в баллах и высота нижней границы облаков в метрах; квадратными скобками обозначены формы облаков: Ci - перистые, Cs - перисто-слоистые, Cc - перисто-кучевые, Ac - высококучевые, As - высокослоистые, Sc - слоисто-кучевые, Ns - слоисто-дождевые, Cu - кучевые, Cb - кучево-дождевые. Подробнее классификацию облаков см. в Атласе облаков (PDF).
T - Температура воздуха - температура, измеренная на высоте 2 м над землей.
Td - Температура точки росы - температура, при понижении до которой содержащийся в воздухе водяной пар достигнет насыщения.
f - Относительная влажность воздуха - влажноcть воздуха, измеренная на высоте 2 м над землей.
Te - Эффективная температура - температура, которую ощущает одетый по сезону человек в тени. Характеристика душности погоды. При расчете учитывается влияние влажности воздуха и скорости ветра на теплоощущения человека.
Tes - Эффективная температура на солнце - температура, которую ощущает человек, с поправкой на солнечный нагрев. Характеристика знойности погоды. Зависит от высоты солнца над горизонтом, облачности и скорости ветра. Ночью, в пасмурную погоду, а также при ветре 12 м/с и более поправка равна нулю.
P - Атмосферное давление - приведенное к уровню моря атмосферное давление.
Po - Атмосферное давление - измеренное на уровне метеостанции атмосферное давление.
Tmin - Минимальная температура - минимум температуры воздуха на высоте 2 м над землей.
Tmax - Максимальная температура - максимум температуры воздуха на высоте 2 м над землей.
R - Количество осадков - Количество выпавших осадков за период времени, мм. При наведении курсора мыши на число - период времени, за который выпало указанное количество осадков.
R24 - Количество осадков - Количество выпавших осадков за 24 часа, мм.
S - Снежный покров - Высота снежного покрова, см. При наведении курсора мыши на число - состояние снежного покрова и степень покрытия местности в баллах.